H1 CPF 2 NER 2024 1 30 9 030 01 glonass131 H2 1301901 9131 39155 2024 1 30 0 0 0 2024 2 2 23 45 0 900 1 1 0 0 0 1 H9 10 0 60339 0.00000 0 -7082316.532 13900330.489 20205371.017 10 0 60339 900.00000 0 -9144954.271 15086792.896 18439421.592 10 0 60339 1800.00000 0 -10911812.722 16296842.671 16315825.388 10 0 60339 2700.00000 0 -12356766.218 17471284.771 13875469.181 10 0 60339 3600.00000 0 -13466419.290 18548817.899 11165471.423 10 0 60339 4500.00000 0 -14240436.529 19468668.848 8238289.642 10 0 60339 5400.00000 0 -14691330.001 20173232.707 5150715.738 10 0 60339 6300.00000 0 -14843711.232 20610606.851 1962777.486 10 0 60339 7200.00000 0 -14733037.738 20736909.900 -1263432.766 10 0 60339 8100.00000 0 -14403905.994 20518285.015 -4464978.886 10 0 60339 9000.00000 0 -13907962.804 19932499.569 -7579326.245 10 0 60339 9900.00000 0 -13301524.134 18970070.133 -10545585.209 10 0 60339 10800.00000 0 -12643003.770 17634861.879 -13305726.215 10 0 60339 11700.00000 0 -11990262.949 15944134.277 -15805740.105 10 0 60339 12600.00000 0 -11397995.930 13928029.037 -17996718.433 10 0 60339 13500.00000 0 -10915265.106 11628520.709 -19835830.307 10 0 60339 14400.00000 0 -10583292.640 9097873.796 -21287174.816 10 0 60339 15300.00000 0 -10433604.328 6396671.789 -22322491.009 10 0 60339 16200.00000 0 -10486605.653 3591502.013 -22921710.955 10 0 60339 17100.00000 0 -10750650.901 752394.798 -23073345.044 10 0 60339 18000.00000 0 -11221644.416 -2049874.229 -22774692.652 10 0 60339 18900.00000 0 -11883189.817 -4746504.685 -22031875.224 10 0 60339 19800.00000 0 -12707279.153 -7273300.381 -20859692.694 10 0 60339 20700.00000 0 -13655490.791 -9573096.906 -19281307.935 10 0 60339 21600.00000 0 -14680643.184 -11597887.377 -17327767.392 10 0 60339 22500.00000 0 -15728832.514 -13310559.390 -15037369.268 10 0 60339 23400.00000 0 -16741766.355 -14686173.209 -12454893.541 10 0 60339 24300.00000 0 -17659293.551 -15712731.060 -9630710.512 10 0 60339 25200.00000 0 -18422022.916 -16391409.066 -6619786.684 10 0 60339 26100.00000 0 -18973920.321 -16736245.975 -3480608.396 10 0 60339 27000.00000 0 -19264775.422 -16773305.460 -274044.778 10 0 60339 27900.00000 0 -19252435.407 -16539350.389 2937827.754 10 0 60339 28800.00000 0 -18904713.451 -16080087.299 6092916.943 10 0 60339 29700.00000 0 -18200893.535 -15448056.505 9130299.810 10 0 60339 30600.00000 0 -17132770.289 -14700257.213 11991379.854 10 0 60339 31500.00000 0 -15705181.782 -13895607.156 14620995.568 10 0 60339 32400.00000 0 -13936013.936 -13092342.396 16968460.915 10 0 60339 33300.00000 0 -11855676.627 -12345464.708 18988519.871 10 0 60339 34200.00000 0 -9506072.718 -11704341.577 20642198.762 10 0 60339 35100.00000 0 -6939101.524 -11210557.272 21897542.074 10 0 60339 36000.00000 0 -4214756.613 -10896103.154 22730219.220 10 0 60339 36900.00000 0 -1398894.083 -10781981.677 23123991.794 10 0 60339 37800.00000 0 1439239.436 -10877281.914 23071032.886 10 0 60339 38700.00000 0 4229620.021 -11178765.634 22572092.143 10 0 60339 39600.00000 0 6904095.811 -11670982.464 21636502.522 10 0 60339 40500.00000 0 9398965.397 -12326911.346 20282026.986 10 0 60339 41400.00000 0 11657380.307 -13109104.043 18534545.923 10 0 60339 42300.00000 0 13631472.890 -13971285.661 16427588.684 10 0 60339 43200.00000 0 15284121.265 -14860347.900 14001715.525 10 0 60339 44100.00000 0 16590277.077 -15718653.736 11303759.091 10 0 60339 45000.00000 0 17537799.145 -16486558.329 8385937.716 10 0 60339 45900.00000 0 18127756.200 -17105040.716 5304855.802 10 0 60339 46800.00000 0 18374183.959 -17518334.992 2120409.411 10 0 60339 47700.00000 0 18303304.800 -17676448.475 -1105381.987 10 0 60339 48600.00000 0 17952241.498 -17537458.056 -4309594.478 10 0 60339 49500.00000 0 17367278.543 -17069484.549 -7429644.404 10 0 60339 50400.00000 0 16601744.597 -16252258.021 -10404532.583 10 0 60339 51300.00000 0 15713606.648 -15078204.379 -13176061.424 10 0 60339 52200.00000 0 14762879.387 -13553003.997 -15689998.579 10 0 60339 53100.00000 0 13808961.831 -11695596.173 -17897161.765 10 0 60339 54000.00000 0 12908016.524 -9537627.362 -19754401.221 10 0 60339 54900.00000 0 12110504.831 -7122365.485 -21225458.686 10 0 60339 55800.00000 0 11458984.827 -4503125.930 -22281684.748 10 0 60339 56700.00000 0 10986266.547 -1741276.035 -22902599.864 10 0 60339 57600.00000 0 10714003.352 1096097.062 -23076288.085 10 0 60339 58500.00000 0 10651778.891 3938756.055 -22799616.360 10 0 60339 59400.00000 0 10796727.239 6716011.720 -22078276.316 10 0 60339 60300.00000 0 11133700.521 9359435.955 -20926649.237 10 0 60339 61200.00000 0 11635974.686 11805475.847 -19367498.738 10 0 60339 62100.00000 0 12266460.989 13997859.904 -17431499.143 10 0 60339 63000.00000 0 12979369.400 15889697.188 -15156610.774 10 0 60339 63900.00000 0 13722251.270 17445183.636 -12587316.302 10 0 60339 64800.00000 0 14438333.006 18640847.065 -9773734.780 10 0 60339 65700.00000 0 15069040.884 19466282.114 -6770632.030 10 0 60339 66600.00000 0 15556609.772 19924348.006 -3636347.802 10 0 60339 67500.00000 0 15846665.800 20030824.543 -431661.177 10 0 60339 68400.00000 0 15890674.841 19813544.159 2781383.542 10 0 60339 69300.00000 0 15648154.967 19311039.312 5940667.961 10 0 60339 70200.00000 0 15088561.409 18570764.058 8985185.479 10 0 60339 71100.00000 0 14192766.546 17646965.644 11856200.271 10 0 60339 72000.00000 0 12954074.390 16598295.618 14498358.590 10 0 60339 72900.00000 0 11378728.217 15485259.996 16860732.949 10 0 60339 73800.00000 0 9485890.613 14367613.886 18897781.211 10 0 60339 74700.00000 0 7307096.514 13301807.731 20570204.268 10 0 60339 75600.00000 0 4885200.878 12338589.816 21845687.830 10 0 60339 76500.00000 0 2272862.752 11520863.112 22699515.769 10 0 60339 77400.00000 0 -469373.963 10881884.231 23115044.429 10 0 60339 78300.00000 0 -3275326.678 10443878.497 23084029.357 10 0 60339 79200.00000 0 -6075657.611 10217128.554 22606798.067 10 0 60339 80100.00000 0 -8800495.046 10199575.035 21692264.635 10 0 60339 81000.00000 0 -11382086.828 10376947.261 20357784.289 10 0 60339 81900.00000 0 -13757378.449 10723420.461 18628848.616 10 0 60339 82800.00000 0 -15870410.238 11202774.481 16538624.682 10 0 60339 83700.00000 0 -17674434.606 11770007.960 14127344.171 10 0 60339 84600.00000 0 -19133664.774 12373342.666 11441551.549 10 0 60339 85500.00000 0 -20224580.768 12956535.568 8533223.360 10 0 60340 0.00000 0 -20936736.130 13461402.370 5458774.048 10 0 60340 900.00000 0 -21273029.623 13830446.418 2277964.620 10 0 60340 1800.00000 0 -21249427.399 14009480.356 -947260.878 10 0 60340 2700.00000 0 -20894146.640 13950128.649 -4153993.543 10 0 60340 3600.00000 0 -20246332.726 13612101.611 -7279603.438 10 0 60340 4500.00000 0 -19354285.664 12965141.575 -10262984.524 10 0 60340 5400.00000 0 -18273310.966 11990555.222 -13045773.770 10 0 60340 6300.00000 0 -17063287.043 10682263.727 -15573518.071 10 0 60340 7200.00000 0 -15786053.861 9047323.248 -17796763.527 10 0 60340 8100.00000 0 -14502735.628 7105891.432 -19672043.453 10 0 60340 9000.00000 0 -13271113.162 4890639.765 -21162743.870 10 0 60340 9900.00000 0 -12143159.287 2445635.887 -22239828.181 10 0 60340 10800.00000 0 -11162843.129 -175256.950 -22882406.148 10 0 60340 11700.00000 0 -10364297.076 -2910395.297 -23078136.014 10 0 60340 12600.00000 0 -9770423.925 -5692700.009 -22823452.447 10 0 60340 13500.00000 0 -9392002.219 -8452230.273 -22123617.023 10 0 60340 14400.00000 0 -9227325.860 -11118878.282 -20992591.756 10 0 60340 15300.00000 0 -9262390.872 -13625071.044 -19452740.024 10 0 60340 16200.00000 0 -9471618.570 -15908366.275 -17534362.712 10 0 60340 17100.00000 0 -9819081.609 -17913834.483 -15275080.655 10 0 60340 18000.00000 0 -10260178.147 -19596129.108 -12719077.386 10 0 60340 18900.00000 0 -10743680.880 -20921160.359 -9916218.693 10 0 60340 19800.00000 0 -11214072.285 -21867305.598 -6921067.593 10 0 60340 20700.00000 0 -11614066.186 -22426108.865 -3791815.032 10 0 60340 21600.00000 0 -11887208.553 -22602443.776 -589147.773 10 0 60340 22500.00000 0 -11980448.015 -22414136.322 2624924.322 10 0 60340 23400.00000 0 -11846568.535 -21891066.421 5788259.123 10 0 60340 24300.00000 0 -11446383.105 -21073788.263 8839768.869 10 0 60340 25200.00000 0 -10750597.776 -20011728.867 11720580.926 10 0 60340 26100.00000 0 -9741269.302 -18761040.987 14375151.836 10 0 60340 27000.00000 0 -8412796.618 -17382200.045 16752315.151 10 0 60340 27900.00000 0 -6772405.406 -15937444.486 18806245.003 10 0 60340 28800.00000 0 -4840105.619 -14488164.848 20497319.027 10 0 60340 29700.00000 0 -2648122.969 -13092348.383 21792866.078 10 0 60340 30600.00000 0 -239826.397 -11802183.528 22667786.097 10 0 60340 31500.00000 0 2331806.291 -10661922.004 23105031.419 10 0 60340 32400.00000 0 5006124.008 -9706085.892 23095940.919 10 0 60340 33300.00000 0 7717062.383 -8958093.372 22640420.456 10 0 60340 34200.00000 0 10395637.984 -8429360.128 21746965.328 10 0 60340 35100.00000 0 12972576.708 -8118914.480 20432522.753 10 0 60340 36000.00000 0 15380970.118 -8013543.614 18722194.883 10 0 60340 36900.00000 0 17558851.394 -8088466.749 16648785.494 10 0 60340 37800.00000 0 19451584.865 -8308509.280 14252196.315 10 0 60340 38700.00000 0 21013969.646 -8629730.948 11578681.862 10 0 60340 39600.00000 0 22211968.611 -9001441.593 8679974.726 10 0 60340 40500.00000 0 23023988.675 -9368520.994 5612296.290 10 0 60340 41400.00000 0 23441656.478 -9673945.500 2435270.729 10 0 60340 42300.00000 0 23470054.361 -9861414.261 -789237.016 10 0 60340 43200.00000 0 23127404.365 -9877962.540 -3998336.353 10 0 60340 44100.00000 0 22444211.631 -9676449.106 -7129354.412 10 0 60340 45000.00000 0 21461902.126 -9217809.275 -10121081.549 10 0 60340 45900.00000 0 20231011.846 -8472974.672 -12914992.366 10 0 60340 46800.00000 0 18809004.512 -7424374.841 -15456415.817 10 0 60340 47700.00000 0 17257811.320 -6066953.828 -17695628.895 10 0 60340 48600.00000 0 15641198.610 -4408655.962 -19588850.171 10 0 60340 49500.00000 0 14022076.882 -2470358.286 -21099111.784 10 0 60340 50400.00000 0 12459867.006 -285251.291 -22196991.427 10 0 60340 51300.00000 0 11008036.673 2102306.271 -22861189.260 10 0 60340 52200.00000 0 9711912.236 4638409.950 -23078938.423 10 0 60340 53100.00000 0 8606858.643 7261640.393 -22846241.617 10 0 60340 54000.00000 0 7716903.666 9905415.920 -22167930.275 10 0 60340 54900.00000 0 7053862.940 12500567.012 -21057546.670 10 0 60340 55800.00000 0 6617000.419 14978023.830 -19537053.090 10 0 60340 56700.00000 0 6393235.648 17271503.714 -17636375.779 10 0 60340 57600.00000 0 6357885.792 19320086.319 -15392794.535 10 0 60340 58500.00000 0 6475907.760 21070569.429 -12850191.874 10 0 60340 59400.00000 0 6703584.813 22479508.510 -10058178.135 10 0 60340 60300.00000 0 6990583.721 23514856.899 -7071111.058 10 0 60340 61200.00000 0 7282293.561 24157140.805 -3947030.069 10 0 60340 62100.00000 0 7522346.122 24400123.056 -746526.718 10 0 60340 63000.00000 0 7655211.061 24250931.037 2468426.583 10 0 60340 63900.00000 0 7628756.664 23729646.472 5635667.000 10 0 60340 64800.00000 0 7396669.210 22868376.786 8694028.588 10 0 60340 65700.00000 0 6920630.451 21709848.809 11584504.760 10 0 60340 66600.00000 0 6172163.229 20305584.697 14251365.026 10 0 60340 67500.00000 0 5134069.190 18713736.475 16643206.439 10 0 60340 68400.00000 0 3801399.443 16996668.899 18713921.632 10 0 60340 69300.00000 0 2181918.032 15218390.013 20423566.971 10 0 60340 70200.00000 0 296038.555 13441934.455 21739116.167 10 0 60340 71100.00000 0 -1823764.612 11726806.102 22635086.636 10 0 60340 72000.00000 0 -4134048.012 10126584.119 23094027.773 10 0 60340 72900.00000 0 -6581951.142 8686789.871 23106862.457 10 0 60340 73800.00000 0 -9107147.707 7443101.787 22673075.128 10 0 60340 74700.00000 0 -11644118.686 6419991.577 21800742.053 10 0 60340 75600.00000 0 -14124656.378 5629838.436 20506401.665 10 0 60340 76500.00000 0 -16480498.651 5072558.845 18814765.375 10 0 60340 77400.00000 0 -18645986.328 4735768.810 16758271.857 10 0 60340 78300.00000 0 -20560634.709 4595473.603 14376490.616 10 0 60340 79200.00000 0 -22171512.599 4617258.179 11715383.577 10 0 60340 80100.00000 0 -23435328.937 4757930.291 8826436.466 10 0 60340 81000.00000 0 -24320138.272 4967548.733 5765674.801 10 0 60340 81900.00000 0 -24806591.404 5191752.098 2592582.232 10 0 60340 82800.00000 0 -24888675.992 5374289.748 -631058.268 10 0 60340 83700.00000 0 -24573913.292 5459646.959 -3842377.479 10 0 60340 84600.00000 0 -23883000.271 5395651.227 -6978662.549 10 0 60340 85500.00000 0 -22848910.284 5135946.587 -9978603.057 10 0 60341 0.00000 0 -21515489.374 4642227.881 -12783513.655 10 0 60341 900.00000 0 -19935606.460 3886136.465 -15338508.304 10 0 60341 1800.00000 0 -18168938.102 2850734.335 -17593596.809 10 0 60341 2700.00000 0 -16279480.403 1531490.372 -19504684.825 10 0 60341 3600.00000 0 -14332896.685 -63264.835 -21034452.035 10 0 60341 4500.00000 0 -12393814.244 -1912436.585 -22153091.396 10 0 60341 5400.00000 0 -10523186.181 -3982812.731 -22838893.968 10 0 60341 6300.00000 0 -8775830.869 -6230232.116 -23078667.815 10 0 60341 7200.00000 0 -7198253.434 -8601224.942 -22867983.247 10 0 60341 8100.00000 0 -5826840.746 -11035054.963 -22211240.728 10 0 60341 9000.00000 0 -4686504.765 -13466076.490 -21121561.591 10 0 60341 9900.00000 0 -3789829.265 -15826306.050 -19620505.535 10 0 60341 10800.00000 0 -3136753.056 -18048099.948 -17737622.401 10 0 60341 11700.00000 0 -2714799.633 -20066825.172 -15509849.004 10 0 60341 12600.00000 0 -2499839.945 -21823411.946 -12980764.761 10 0 60341 13500.00000 0 -2457352.508 -23266682.016 -10199722.414 10 0 60341 14400.00000 0 -2544124.398 -24355356.819 -7220872.243 10 0 60341 15300.00000 0 -2710318.615 -25059663.685 -4102100.002 10 0 60341 16200.00000 0 -2901818.580 -25362475.522 -903899.886 10 0 60341 17100.00000 0 -3062749.663 -25259939.180 2311795.249 10 0 60341 18000.00000 0 -3138071.076 -24761569.059 5482803.963 10 0 60341 18900.00000 0 -3076129.314 -23889804.638 8547884.227 10 0 60341 19800.00000 0 -2831066.665 -22679052.471 11447897.609 10 0 60341 20700.00000 0 -2364984.890 -21174254.024 14126928.684 10 0 60341 21600.00000 0 -1649774.715 -19429039.621 16533340.067 10 0 60341 22500.00000 0 -668535.733 -17503545.093 18620744.867 10 0 60341 23400.00000 0 583471.852 -15461980.884 20348879.990 10 0 60341 24300.00000 0 2098383.256 -13370052.904 21684365.624 10 0 60341 25200.00000 0 3855812.056 -11292339.979 22601338.002 10 0 60341 26100.00000 0 5823458.163 -9289734.357 23081944.634 10 0 60341 27000.00000 0 7958217.817 -7417049.105 23116693.120 10 0 60341 27900.00000 0 10207752.566 -5720889.641 22704646.873 10 0 60341 28800.00000 0 12512455.413 -4237876.377 21853463.176 10 0 60341 29700.00000 0 14807736.066 -2993291.571 20579271.404 10 0 60341 30600.00000 0 17026533.661 -2000206.779 18906391.621 10 0 60341 31500.00000 0 19101955.249 -1259128.108 16866896.462 10 0 60341 32400.00000 0 20969932.184 -758175.512 14500021.946 10 0 60341 33300.00000 0 22571784.640 -473790.451 11851435.794 10 0 60341 34200.00000 0 23856587.005 -371944.182 8972374.903 10 0 60341 35100.00000 0 24783234.032 -409797.554 5918666.625 10 0 60341 36000.00000 0 25322119.086 -537743.640 2749651.450 10 0 60341 36900.00000 0 25456351.343 -701747.390 -472972.511 10 0 60341 37800.00000 0 25182457.796 -845882.977 -3686360.482 10 0 60341 38700.00000 0 24510537.619 -914960.009 -6827762.778 10 0 60341 39600.00000 0 23463859.924 -857125.093 -9835771.300 10 0 60341 40500.00000 0 22077920.096 -626325.543 -12651544.176 10 0 60341 41400.00000 0 20398993.604 -184527.462 -15219982.078 10 0 60341 42300.00000 0 18482248.319 496409.238 -17490830.560 10 0 60341 43200.00000 0 16389495.816 1433281.457 -19419684.484 10 0 60341 44100.00000 0 14186677.922 2630583.208 -20968872.882 10 0 60341 45000.00000 0 11941196.321 4080078.087 -22108205.469 10 0 60341 45900.00000 0 9719199.526 5760923.098 -22815565.398 10 0 60341 46800.00000 0 7582942.973 7640338.906 -23077336.522 10 0 60341 47700.00000 0 5588334.318 9674797.793 -22888657.285 10 0 60341 48600.00000 0 3782767.299 11811678.295 -22253497.332 10 0 60341 49500.00000 0 2203334.451 13991315.598 -21184556.820 10 0 60341 50400.00000 0 875492.144 16149360.090 -19702992.226 10 0 60341 51300.00000 0 -187768.561 18219343.751 -17837975.957 10 0 60341 52200.00000 0 -986213.645 20135345.838 -15626100.433 10 0 60341 53100.00000 0 -1532111.859 21834645.692 -13110640.201 10 0 60341 54000.00000 0 -1849449.088 23260251.758 -10340688.291 10 0 60341 54900.00000 0 -1972648.148 24363201.859 -7370185.138 10 0 60341 55800.00000 0 -1944851.305 25104539.927 -4256860.165 10 0 60341 56700.00000 0 -1815840.595 25456888.597 -1061107.385 10 0 60341 57600.00000 0 -1639685.489 25405554.302 2155182.862 10 0 60341 58500.00000 0 -1472218.053 24949121.224 5329813.536 10 0 60341 59400.00000 0 -1368442.112 24099511.765 8401469.515 10 0 60341 60300.00000 0 -1379984.905 22881513.089 11310883.422 10 0 60341 61200.00000 0 -1552697.228 21331791.011 14001957.670 10 0 60341 62100.00000 0 -1924501.426 19497433.117 16422823.039 10 0 60341 63000.00000 0 -2523576.020 17434081.680 18526815.499 10 0 60341 63900.00000 0 -3366951.788 15203733.131 20273354.677 10 0 60341 64800.00000 0 -4459577.351 12872293.857 21628709.141 10 0 60341 65700.00000 0 -5793893.335 10506991.500 22566635.570 10 0 60341 66600.00000 0 -7349933.798 8173746.605 23068880.862 10 0 60341 67500.00000 0 -9095952.454 5934610.884 23125538.237 10 0 60341 68400.00000 0 -10989550.251 3845375.879 22735250.507 10 0 60341 69300.00000 0 -12979260.485 1953449.230 21905255.909 10 0 60341 70200.00000 0 -15006529.000 296085.398 20651274.131 10 0 60341 71100.00000 0 -17008010.535 -1100956.203 18997232.706 10 0 60341 72000.00000 0 -18918088.638 -2224269.465 16974836.488 10 0 60341 72900.00000 0 -20671516.525 -3073139.486 14622985.743 10 0 60341 73800.00000 0 -22206070.142 -3659344.450 11987051.279 10 0 60341 74700.00000 0 -23465102.876 -4006427.958 9118018.106 10 0 60341 75600.00000 0 -24399894.235 -4148470.568 6071512.104 10 0 60341 76500.00000 0 -24971692.248 -4128410.805 2906727.166 10 0 60341 77400.00000 0 -25153361.208 -3995985.570 -314726.928 10 0 60341 78300.00000 0 -24930562.421 -3805376.936 -3530033.278 10 0 60341 79200.00000 0 -24302415.012 -3612665.731 -6676408.689 10 0 60341 80100.00000 0 -23281605.982 -3473201.557 -9692350.552 10 0 60341 81000.00000 0 -21893942.432 -3439003.194 -12518863.212 10 0 60341 81900.00000 0 -20177363.213 -3556302.668 -15100637.272 10 0 60341 82800.00000 0 -18180450.964 -3863340.382 -17387156.177 10 0 60341 83700.00000 0 -15960507.437 -4388507.925 -19333705.983 10 0 60341 84600.00000 0 -13581274.175 -5148920.038 -20902266.581 10 0 60341 85500.00000 0 -11110396.001 -6149478.327 -22062265.405 10 0 60342 0.00000 0 -8616736.012 -7382467.586 -22791178.025 10 0 60342 900.00000 0 -6167655.246 -8827703.008 -23074964.006 10 0 60342 1800.00000 0 -3826375.898 -10453220.159 -22908329.083 10 0 60342 2700.00000 0 -1649534.923 -12216479.847 -22294810.837 10 0 60342 3600.00000 0 314966.256 -14066034.225 -21246686.613 10 0 60342 4500.00000 0 2029728.240 -15943582.972 -19784707.695 10 0 60342 5400.00000 0 3469164.132 -17786331.428 -17937666.855 10 0 60342 6300.00000 0 4620301.996 -19529550.234 -15741809.736 10 0 60342 7200.00000 0 5483049.103 -21109228.068 -13240103.528 10 0 60342 8100.00000 0 6069910.847 -22464705.816 -10481379.018 10 0 60342 9000.00000 0 6405180.113 -23541182.013 -7519364.240 10 0 60342 9900.00000 0 6523634.955 -24291985.443 -4411629.780 10 0 60342 10800.00000 0 6468802.639 -24680521.275 -1218467.016 10 0 60342 11700.00000 0 6290865.684 -24681811.171 1998278.597 10 0 60342 12600.00000 0 6044299.703 -24283565.215 5176396.682 10 0 60342 13500.00000 0 5785343.272 -23486743.067 8254501.182 10 0 60342 14400.00000 0 5569406.173 -22305582.957 11173197.814 10 0 60342 15300.00000 0 5448524.163 -20767098.884 13876208.735 10 0 60342 16200.00000 0 5468965.855 -18910067.909 16311434.625 10 0 60342 17100.00000 0 5669090.557 -16783549.824 18431935.883 10 0 60342 18000.00000 0 6077545.321 -14445000.065 20196816.190 10 0 60342 18900.00000 0 6711875.498 -11958052.736 21571993.574 10 0 60342 19800.00000 0 7577606.330 -9390063.504 22530845.961 10 0 60342 20700.00000 0 8667834.139 -6809511.630 23054720.137 10 0 60342 21600.00000 0 9963345.288 -4283365.882 23133295.124 10 0 60342 22500.00000 0 11433259.907 -1874520.641 22764793.032 10 0 60342 23400.00000 0 13036176.265 360593.929 21956032.636 10 0 60342 24300.00000 0 14721771.274 2374130.464 20722323.265 10 0 60342 25200.00000 0 16432793.830 4128584.824 19087198.981 10 0 60342 26100.00000 0 18107371.063 5598125.438 17081995.664 10 0 60342 27000.00000 0 19681533.949 6769435.624 14745276.387 10 0 60342 27900.00000 0 21091858.675 7642032.534 12122113.362 10 0 60342 28800.00000 0 22278114.096 8228047.658 9263237.765 10 0 60342 29700.00000 0 23185804.078 8551476.301 6224071.815 10 0 60342 30600.00000 0 23768496.726 8646925.884 3063660.388 10 0 60342 31500.00000 0 23989840.234 8557914.571 -156477.680 10 0 60342 32400.00000 0 23825177.580 8334791.516 -3373556.097 10 0 60342 33300.00000 0 23262688.655 8032366.957 -6524760.927 10 0 60342 34200.00000 0 22304008.367 7707353.703 -9548497.777 10 0 60342 35100.00000 0 20964291.647 7415730.449 -12385619.768 10 0 60342 36000.00000 0 19271720.315 7210141.317 -14980609.800 10 0 60342 36900.00000 0 17266471.134 7137444.956 -17282691.300 10 0 60342 37800.00000 0 14999187.999 7236520.144 -19246843.352 10 0 60342 38700.00000 0 12529022.943 7536423.736 -20834698.271 10 0 60342 39600.00000 0 9921329.443 8054981.261 -22015302.532 10 0 60342 40500.00000 0 7245106.484 8797871.393 -22765725.293 10 0 60342 41400.00000 0 4570302.324 9758243.776 -23071502.398 10 0 60342 42300.00000 0 1965092.579 10916886.219 -22926907.584 10 0 60342 43200.00000 0 -506752.325 12242933.403 -22335046.591 10 0 60342 44100.00000 0 -2788299.780 13695085.795 -21307773.793 10 0 60342 45000.00000 0 -4831586.417 15223285.618 -19865434.728 10 0 60342 45900.00000 0 -6599360.650 16770777.412 -18036441.580 10 0 60342 46800.00000 0 -8066365.782 18276464.718 -15856691.870 10 0 60342 47700.00000 0 -9220113.105 19677462.334 -13368843.734 10 0 60342 48600.00000 0 -10061116.328 20911735.937 -10621463.715 10 0 60342 49500.00000 0 -10602581.499 21920717.898 -7668065.202 10 0 60342 50400.00000 0 -10869569.403 22651789.808 -4566057.506 10 0 60342 51300.00000 0 -10897669.262 23060528.535 -1375626.792 10 0 60342 52200.00000 0 -10731242.571 23112623.157 1841429.036 10 0 60342 53100.00000 0 -10421313.144 22785384.325 5022888.991 10 0 60342 54000.00000 0 -10023193.497 22068784.898 8107298.807 10 0 60342 54900.00000 0 -9593947.785 20965990.274 11035140.003 10 0 60342 55800.00000 0 -9189797.502 19493357.865 13749957.124 10 0 60342 56700.00000 0 -8863577.793 17679906.787 16199423.309 10 0 60342 57600.00000 0 -8662349.536 15566280.140 18336325.802 10 0 60342 58500.00000 0 -8625265.582 13203242.583 20119454.596 10 0 60342 59400.00000 0 -8781778.888 10649774.233 21514379.233 10 0 60342 60300.00000 0 -9150266.364 7970837.912 22494100.677 10 0 60342 61200.00000 0 -9737125.429 5234909.620 23039567.090 10 0 60342 62100.00000 0 -10536381.366 2511371.537 23140044.418 10 0 60342 63000.00000 0 -11529823.067 -132127.567 22793334.748 10 0 60342 63900.00000 0 -12687663.581 -2632238.010 22005837.604 10 0 60342 64800.00000 0 -13969700.597 -4932296.962 20792451.621 10 0 60342 65700.00000 0 -15326931.584 -6984440.906 19176316.503 10 0 60342 66600.00000 0 -16703559.285 -8751355.753 17188397.714 10 0 60342 67500.00000 0 -18039306.669 -10207591.744 14866919.167 10 0 60342 68400.00000 0 -19271946.743 -11340387.394 12256652.026 10 0 60342 69300.00000 0 -20339942.606 -12149966.549 9408070.792 10 0 60342 70200.00000 0 -21185087.274 -12649294.297 6376390.872 10 0 60342 71100.00000 0 -21755031.522 -12863300.086 3220504.771 10 0 60342 72000.00000 0 -22005591.506 -12827599.187 1836.905 10 0 60342 72900.00000 0 -21902736.183 -12586765.368 -3216860.564 10 0 60342 73800.00000 0 -21424167.430 -12192227.510 -6372746.457 10 0 60342 74700.00000 0 -20560422.653 -11699879.758 -9404137.996 10 0 60342 75600.00000 0 -19315449.972 -11167507.878 -12251740.358 10 0 60342 76500.00000 0 -17706628.820 -10652143.090 -14859831.782 10 0 60342 77400.00000 0 -15764232.921 -10207458.228 -17177378.443 10 0 60342 78300.00000 0 -13530357.066 -9881319.507 -19159054.816 10 0 60342 79200.00000 0 -11057352.506 -9713600.428 -20766147.516 10 0 60342 80100.00000 0 -8405837.310 -9734352.799 -21967323.367 10 0 60342 81000.00000 0 -5642366.404 -9962414.014 -22739245.748 10 0 60342 81900.00000 0 -2836860.532 -10404510.428 -23067026.951 10 0 60342 82800.00000 0 -59903.453 -11054894.789 -22944508.059 10 0 60342 83700.00000 0 2619978.168 -11895532.305 -22374361.854 10 0 60342 84600.00000 0 5138937.675 -12896826.020 -21368018.154 10 0 60342 85500.00000 0 7440224.415 -14018849.033 -19945414.803 99